Regional Weather Roundup
Issued by NWS Mt. Holly, NJ

Home | Current Version | Previous Version | Text Only | Print | Product List | Glossary On
Versions: 1 2 3 4 5 6 7 8 9 10 11 12 13 14 15 16 17 18 19 20 21 22 23 24 25 26 27 28 29 30 31 32 33 34 35 36 37 38 39 40 41 42 43 44 45 46 47 48 49 50
000
ASUS41 KPHI 311810
RWRPHI

REGIONAL WEATHER ROUNDUP
NATIONAL WEATHER SERVICE MOUNT HOLLY NJ
100 PM EST SAT JAN 31 2015

NOTE:  "FAIR" INDICATES FEW OR NO CLOUDS BELOW 12,000 FEET WITH NO
SIGNIFICANT WEATHER AND/OR OBSTRUCTIONS TO VISIBILITY.

 * = STATION DOES NOT REPORT PRECIPITATION (E.G. RAIN, SNOW, ETC.)
        OR FOG.

NJZ015>026-311900-
SOUTHERN NEW JERSEY

CITY           SKY/WX    TMP DP  RH WIND       PRES   REMARKS
POMONA         SUNNY     26   0  32 NW23G35   30.16F WCI  11
6HR MIN TEMP:  14; 6HR MAX TEMP:  26;

RIO GRANDE*    SUNNY     25   7  46 NW18G28   30.22F WCI  11
MILLVILLE      SUNNY     26   3  37 NW20G29   30.21F WCI  12
WRIGHTSTOWN    SUNNY     24   0  36 W18G29    30.15F WCI   9
MOUNT HOLLY    SUNNY     23   1  38 W12G23    30.19F WCI  12
TRENTON        SUNNY     23  -1  35 NW15G21   30.16F WCI  10
6HR MIN TEMP:  12; 6HR MAX TEMP:  23;


$$
NJZ001>014-311900-
NORTHERN NEW JERSEY

CITY           SKY/WX    TMP DP  RH WIND       PRES   REMARKS
SUSSEX         SUNNY     20  -5  33 N13G25    30.11F WCI   7
ANDOVER*         N/A     21  -3  35 N8G17     30.12F WCI  11
MORRISTOWN     SUNNY     23   0  36 NW14G24   30.14F WCI  11
NEWARK         SUNNY     23   0  36 NW21G32   30.12F WCI   8
TETERBORO      SUNNY     23  -3  32 NW13G24   30.12F WCI  11
CALDWELL       SUNNY     23  -2  33 N10G17    30.13F WCI  12
SOMERVILLE     SUNNY     24   0  35 NW10G20   30.13F WCI  14
ALLAIRE*       SUNNY     21   0  39 NW24G35   30.11F WCI   4
TOMS RIVER*    SUNNY     21   1  42 NW25G35   30.13F WCI   4

$$
PAZ043-044-047-054-055-060>062-066>071-311900-
EASTERN PENNSYLVANIA

CITY           SKY/WX    TMP DP  RH WIND       PRES   REMARKS
PHILADELPHIA   SUNNY     26   1  34 NW17      30.23F WCI  13
6HR MIN TEMP:  14; 6HR MAX TEMP:  26;

NORTH PHILA    SUNNY     25   1  35 NW18G25   30.21F WCI  11
BLUE BELL      SUNNY     27   5  39 NW9G18    30.19F WCI  17
DOYLESTOWN     SUNNY     21   3  45 NW14G26   30.16F WCI   8
QUAKERTOWN*    SUNNY     19   3  49 NW12G22   30.18F WCI   7
POTTSTOWN      SUNNY     22   4  46 NW16G24   30.21F WCI   8
LANCASTER      SUNNY     22   5  48 NW15      30.24F WCI   9
COATESVILLE    SUNNY     23   7  50 NW9       30.21F WCI  13
READING        SUNNY     22   6  50 NW17G28   30.22F WCI   8
6HR MIN TEMP:  10; 6HR MAX TEMP:  23;

ALLENTOWN      SUNNY     23   2  40 NW14G23   30.18F WCI  11
6HR MIN TEMP:  11; 6HR MAX TEMP:  23;

MOUNT POCONO   SUNNY     14   0  53 NW22G32   30.01F WCI  -4
6HR MIN TEMP:   2; 6HR MAX TEMP:  14;

HAZLETON       SUNNY     18   1  49 NW15G25   30.13F WCI   3
WILKES BARRE   MOSUNNY   18   2  49 NW20G28   30.17F WCI   2

$$
DEZALL-MDZ008-012-015-019-020-311900-
DELAWARE AND EASTERN MARYLAND

CITY           SKY/WX    TMP DP  RH WIND       PRES   REMARKS
WILMINGTON     SUNNY     27   3  35 NW23G29   30.24F WCI  12
6HR MIN TEMP:  14; 6HR MAX TEMP:  27;

DOVER          SUNNY     27   4  38 W21       30.24F WCI  13
GEORGETOWN     SUNNY     28   3  34 NW9G21    30.24F WCI  19
6HR MIN TEMP:  18; 6HR MAX TEMP:  28;

EASTON         SUNNY     30   9  40 NW15G21   30.32F WCI  19
PATUXENT       SUNNY     31   4  31 NW16      30.29F WCI  20
OCEAN CITY     SUNNY     30   4  33 NW17G28   30.23F WCI  18
WALLOPS ISLAND SUNNY     31   8  38 NW15G28   30.25F WCI  20
CAMBRIDGE      SUNNY     32   9  37 NW14G22   30.28F WCI  22
SALISBURY      SUNNY     32   6  33 NW16      30.25F WCI  21

$$
PAZ001-021-NYZ056-072-MDZ011-DCZ001-311900-
OTHER NEARBY LOCATIONS

CITY           SKY/WX    TMP DP  RH WIND       PRES   REMARKS
HARRISBURG     MOSUNNY   22   7  52 NW10      30.26F WCI  11
STATE COLLEGE  MOSUNNY   19   7  58 NW9       30.22F WCI   9
WILLIAMSPORT   SUNNY     23   4  44 N8        30.23F WCI  14
BINGHAMTON     CLOUDY    12   3  67 NW15G22   30.12F WCI  -4
NEW YORK CITY  SUNNY     23  -3  32 VRB6G23   30.12F WCI  16
BALTIMORE      SUNNY     28   4  35 NW15G24   30.28F WCI  16
WASHINGTON DC  MOSUNNY   31   2  29 NW14G21   30.32F WCI  21

$$



USA.gov is the U.S. government's official web portal to all federal, state and local government web resources and services.